Weather History for Paynesville, MN

Change the Weather History Date:

Sunday, July 14, 2013

  Actual Average (KLJF) Record (KLJF)
Temperature  
Mean Temperature 70 °F -  
Max Temperature 74 °F 84 °F 97 °F (1974)
Min Temperature 67 °F 61 °F 44 °F (1975)
Cooling Degree Days 6    
Growing Degree Days 20 (Base 50)    
Moisture  
Dew Point 63 °F    
Average Humidity 81    
Maximum Humidity 94    
Minimum Humidity 71    
Precipitation  
Precipitation 0.03 in - - ()
Sea Level Pressure  
Sea Level Pressure 30.12 in    
Wind  
Wind Speed 6 mph (SE)    
Max Wind Speed 10 mph    
Max Gust Speed 17 mph    
Visibility 9 miles    
Events Rain , Thunderstorm    
Averages and records for this station are not official NWS values.
T = Trace of Precipitation, MM = Missing Value Source: NWS Daily Summary

Daily Weather History Graph

Daily Weather History Graph

Search for Another Location

Airport:

Trip Planner

Search our weather history database for the weather conditions in past years. The results will help you decide how hot, cold, wet, or windy it might be!

Date:

Astronomy

Jul. 14, 2013 Rise Set
Actual Time 5:44 AM CDT 9:04 PM CDT
Civil Twilight 5:08 AM CDT 9:40 PM CDT
Nautical Twilight 4:20 AM CDT 10:28 PM CDT
Astronomical Twilight 3:20 AM CDT 11:27 PM CDT
Moon 12:23 PM CDT (7/14) 11:54 PM CDT (7/14)
Length of Visible Light 16h 32m
Length of Day
15h 20m
Waxing Crescent, 35% of the Moon is Illuminated
Jul 14
Waxing Crescent
Jul 15
First Quarter
Jul 22
Full
Jul 29
Last Quarter
Aug 6
New

Hourly Weather History & Observations

Time (CDT) Temp. Dew Point Humidity Pressure Visibility Wind Dir Wind Speed Gust Speed Precip Events Conditions
12:13 AM 70.7 °F 60.8 °F 71% 30.06 in 10.0 mi SE 8.1 mph - N/A   Overcast
12:33 AM 70.3 °F 60.8 °F 72% 30.06 in 10.0 mi SE 9.2 mph - N/A   Overcast
12:53 AM 70.0 °F 61.2 °F 73% 30.06 in 10.0 mi SE 10.4 mph - N/A   Overcast
1:13 AM 69.8 °F 61.3 °F 74% 30.07 in 10.0 mi SSE 10.4 mph - N/A   Overcast
1:33 AM 69.1 °F 61.7 °F 77% 30.06 in 10.0 mi SSE 8.1 mph - N/A Rain Light Rain
1:53 AM 69.1 °F 61.5 °F 77% 30.06 in 10.0 mi SSE 8.1 mph - N/A   Overcast
2:12 AM 69.1 °F 61.2 °F 76% 30.05 in 10.0 mi SSE 9.2 mph - N/A   Overcast
2:33 AM 69.1 °F 60.8 °F 75% 30.05 in 10.0 mi SSE 9.2 mph - N/A   Overcast
2:53 AM 68.9 °F 60.1 °F 73% 30.04 in 10.0 mi SSE 6.9 mph - N/A   Overcast
3:12 AM 68.5 °F 59.7 °F 73% 30.04 in 10.0 mi SSE 8.1 mph - N/A   Overcast
3:33 AM 68.5 °F 59.5 °F 73% 30.04 in 10.0 mi SSE 6.9 mph - N/A   Overcast
3:53 AM 68.9 °F 59.4 °F 72% 30.04 in 10.0 mi SE 6.9 mph - N/A   Overcast
4:13 AM 68.9 °F 59.0 °F 71% 30.04 in 10.0 mi SSE 6.9 mph - N/A   Overcast
4:33 AM 68.5 °F 58.8 °F 71% 30.04 in 10.0 mi SSE 6.9 mph - N/A   Overcast
4:53 AM 68.4 °F 58.6 °F 71% 30.05 in 10.0 mi SSE 8.1 mph - N/A Thunderstorm Overcast
5:13 AM 68.2 °F 59.0 °F 72% 30.06 in 10.0 mi SSE 6.9 mph - N/A   Overcast
5:32 AM 68.0 °F 59.0 °F 73% 30.06 in 10.0 mi SSE 6.9 mph - N/A   Mostly Cloudy
5:53 AM 67.6 °F 59.2 °F 74% 30.06 in 10.0 mi SSE 5.8 mph - N/A Thunderstorm Scattered Clouds
6:13 AM 67.6 °F 59.5 °F 75% 30.08 in 10.0 mi SSE 6.9 mph - N/A Thunderstorm Mostly Cloudy
6:33 AM 68.5 °F 60.1 °F 74% 30.07 in 10.0 mi South 5.8 mph - N/A   Mostly Cloudy
6:53 AM 68.9 °F 60.3 °F 74% 30.07 in 10.0 mi South 9.2 mph 17.3 mph N/A   Overcast
7:13 AM 69.1 °F 60.4 °F 74% 30.08 in 10.0 mi SSE 10.4 mph - N/A   Overcast
7:32 AM 69.1 °F 60.8 °F 75% 30.08 in 10.0 mi SSE 8.1 mph - N/A   Overcast
7:53 AM 69.1 °F 60.8 °F 75% 30.08 in 10.0 mi SSE 9.2 mph - N/A   Overcast
8:13 AM 68.9 °F 61.0 °F 76% 30.09 in 10.0 mi SSE 9.2 mph - N/A   Overcast
8:33 AM 69.1 °F 61.3 °F 76% 30.10 in 10.0 mi SSE 8.1 mph - N/A   Overcast
8:53 AM 69.1 °F 61.3 °F 76% 30.10 in 10.0 mi SSE 5.8 mph - N/A   Overcast
9:13 AM 69.8 °F 61.3 °F 74% 30.12 in 10.0 mi SSE 5.8 mph - N/A   Overcast
9:33 AM 70.0 °F 61.0 °F 73% 30.12 in 10.0 mi Calm Calm - N/A   Overcast
9:53 AM 70.0 °F 60.8 °F 73% 30.13 in 10.0 mi South 3.5 mph - N/A   Overcast
10:13 AM 70.3 °F 60.4 °F 71% 30.13 in 10.0 mi SSE 4.6 mph - N/A   Overcast
10:32 AM 70.7 °F 60.8 °F 71% 30.13 in 10.0 mi SSE 4.6 mph - N/A   Overcast
10:53 AM 70.9 °F 61.9 °F 73% 30.12 in 10.0 mi SSE 4.6 mph - N/A   Overcast
11:13 AM 71.6 °F 63.0 °F 74% 30.13 in 10.0 mi SSE 6.9 mph - N/A   Overcast
11:33 AM 71.1 °F 63.5 °F 77% 30.14 in 10.0 mi SSE 9.2 mph - N/A   Overcast
11:53 AM 70.7 °F 63.5 °F 78% 30.14 in 10.0 mi SSE 4.6 mph - N/A   Overcast
12:13 PM 70.3 °F 63.5 °F 79% 30.14 in 10.0 mi SE 5.8 mph - N/A   Overcast
12:33 PM 68.5 °F 64.2 °F 86% 30.15 in 5.0 mi SE 8.1 mph - N/A Rain Light Rain
12:53 PM 68.0 °F 64.6 °F 89% 30.14 in 7.0 mi SE 9.2 mph - N/A Rain Light Rain
1:13 PM 67.6 °F 64.2 °F 89% 30.14 in 10.0 mi SE 9.2 mph - 0.02 in Rain Light Rain
1:33 PM 67.3 °F 63.9 °F 89% 30.16 in 5.0 mi South 4.6 mph - 0.03 in Rain Rain
1:53 PM 67.5 °F 64.2 °F 89% 30.16 in 10.0 mi South 4.6 mph - 0.03 in   Overcast
2:12 PM 68.2 °F 64.6 °F 88% 30.16 in 10.0 mi SSE 3.5 mph - N/A   Overcast
2:33 PM 68.9 °F 65.1 °F 88% 30.16 in 10.0 mi Calm Calm - N/A   Overcast
2:53 PM 69.3 °F 65.5 °F 88% 30.16 in 10.0 mi Calm Calm - N/A   Overcast
3:13 PM 70.3 °F 66.2 °F 87% 30.16 in 10.0 mi Calm Calm - N/A   Overcast
3:33 PM 71.4 °F 66.9 °F 86% 30.16 in 10.0 mi Calm Calm - N/A   Overcast
3:53 PM 73.4 °F 66.9 °F 80% 30.16 in 10.0 mi Calm Calm - N/A   Overcast
4:13 PM 74.1 °F 66.7 °F 78% 30.16 in 10.0 mi Calm Calm - N/A   Overcast
4:32 PM 74.8 °F 66.6 °F 75% 30.16 in 10.0 mi Calm Calm - N/A   Overcast
4:53 PM 74.8 °F 65.8 °F 73% 30.16 in 10.0 mi Calm Calm - N/A   Overcast
5:13 PM 73.8 °F 66.9 °F 79% 30.16 in 10.0 mi Calm Calm - N/A   Overcast
5:33 PM 73.4 °F 66.7 °F 80% 30.16 in 10.0 mi Calm Calm - N/A   Overcast
5:53 PM 73.0 °F 67.1 °F 82% 30.16 in 10.0 mi Calm Calm - N/A   Overcast
6:12 PM 72.7 °F 67.8 °F 85% 30.16 in 10.0 mi Calm Calm - N/A   Overcast
6:33 PM 72.5 °F 68.0 °F 86% 30.16 in 10.0 mi Calm Calm - N/A   Overcast
6:53 PM 71.8 °F 67.6 °F 87% 30.16 in 10.0 mi Calm Calm - N/A   Overcast
7:12 PM 71.1 °F 68.0 °F 90% 30.17 in 7.0 mi Calm Calm - N/A Rain Light Rain
7:33 PM 70.0 °F 67.6 °F 92% 30.17 in 7.0 mi Calm Calm - N/A   Light Drizzle
7:53 PM 69.8 °F 67.1 °F 91% 30.17 in 7.0 mi Calm Calm - N/A Rain Light Rain
8:13 PM 69.3 °F 67.1 °F 93% 30.17 in 5.0 mi Calm Calm - N/A Rain Rain
8:33 PM 69.1 °F 67.1 °F 93% 30.17 in 5.0 mi NNE 4.6 mph - N/A   Overcast
8:53 PM 68.9 °F 67.1 °F 94% 30.17 in 7.0 mi NNE 3.5 mph - N/A   Overcast
9:13 PM 68.5 °F 66.6 °F 93% 30.18 in 7.0 mi NE 3.5 mph - N/A   Overcast
9:33 PM 68.4 °F 66.4 °F 93% 30.18 in 7.0 mi Calm Calm - N/A   Overcast
9:53 PM 68.4 °F 66.4 °F 93% 30.19 in 7.0 mi NE 3.5 mph - N/A   Overcast
10:13 PM 68.4 °F 66.6 °F 94% 30.20 in 7.0 mi Calm Calm - N/A   Overcast
10:33 PM 68.2 °F 66.4 °F 94% 30.20 in 7.0 mi Calm Calm - N/A   Overcast
10:53 PM 68.2 °F 66.4 °F 94% 30.20 in 7.0 mi NE 4.6 mph - N/A   Overcast
11:12 PM 68.2 °F 66.2 °F 93% 30.20 in 7.0 mi ENE 4.6 mph - N/A   Overcast
11:33 PM 68.4 °F 66.2 °F 93% 30.21 in 7.0 mi NE 4.6 mph - N/A   Overcast
11:53 PM 68.4 °F 66.2 °F 93% 30.21 in 7.0 mi NE 6.9 mph - N/A   Overcast